When you browse on this site, cookies collect data to enhance your experience and personalize the content and advertising you see.
Visit our Privacy Policy to learn more. By continuing to use the site, you agree to this use of cookies and data.
  • In Switzerland
  • List of Countries
  • For 7 days
  • Water Temperature
  • Weather Map
  • Weather Widgets
  • user-avatar
    Login

    Hourly Weather Korçe

    Today, 22 October, Tuesday

    Time Temperature Precipitation Wind Pressure Humidity
    00:00 +13°C° 0 mm 1 mps 670 mmHg 58%
    01:00 +13°C° 0 mm 1 mps 670 mmHg 57%
    02:00 +13°C° 0 mm 1 mps 670 mmHg 57%
    03:00 +13°C° 0 mm 2 mps 670 mmHg 58%
    04:00 +12°C° 0 mm 2 mps 670 mmHg 58%
    05:00 +13°C° 0 mm 2 mps 670 mmHg 57%
    06:00 +13°C° 0 mm 2 mps 670 mmHg 57%
    07:00 +14°C° 0 mm 2 mps 671 mmHg 56%
    08:00 +17°C° 0 mm 2 mps 672 mmHg 49%
    09:00 +20°C° 0 mm 1 mps 672 mmHg 41%
    10:00 +22°C° 0 mm 1 mps 673 mmHg 34%
    11:00 +23°C° 0 mm 1 mps 673 mmHg 32%
    12:00 +24°C° 0 mm 1 mps 673 mmHg 29%
    13:00 +24°C° 0 mm 2 mps 673 mmHg 26%
    14:00 +23°C° 0 mm 2 mps 672 mmHg 30%
    15:00 +21°C° 0 mm 2 mps 672 mmHg 34%
    16:00 +20°C° 0 mm 2 mps 671 mmHg 38%
    17:00 +19°C° 0 mm 1 mps 671 mmHg 41%
    18:00 +18°C° 0 mm 1 mps 671 mmHg 45%
    19:00 +15°C° 0 mm 1 mps 671 mmHg 49%
    20:00 +14°C° 0 mm 1 mps 671 mmHg 50%
    21:00 +14°C° 0 mm 1 mps 671 mmHg 51%
    22:00 +14°C° 0 mm 2 mps 670 mmHg 52%
    23:00 +13°C° 0 mm 2 mps 670 mmHg 53%

    Tomorrow, 23 October, Wednesday

    Time Temperature Precipitation Wind Pressure Humidity
    00:00 +13°C° 0 mm 2 mps 670 mmHg 54%
    01:00 +13°C° 0 mm 2 mps 670 mmHg 55%
    02:00 +12°C° 0 mm 2 mps 670 mmHg 55%
    03:00 +12°C° 0 mm 2 mps 670 mmHg 56%
    04:00 +12°C° 0 mm 2 mps 670 mmHg 56%
    05:00 +12°C° 0 mm 2 mps 670 mmHg 56%
    06:00 +12°C° 0 mm 2 mps 670 mmHg 56%
    07:00 +13°C° 0 mm 2 mps 670 mmHg 56%
    08:00 +15°C° 0 mm 2 mps 671 mmHg 47%
    09:00 +19°C° 0 mm 1 mps 672 mmHg 39%
    10:00 +21°C° 0 mm 1 mps 672 mmHg 31%
    11:00 +22°C° 0 mm 1 mps 672 mmHg 28%
    12:00 +23°C° 0 mm 1 mps 672 mmHg 25%
    13:00 +24°C° 0 mm 1 mps 672 mmHg 22%
    14:00 +23°C° 0 mm 1 mps 672 mmHg 26%
    15:00 +22°C° 0 mm 1 mps 671 mmHg 30%
    16:00 +21°C° 0 mm 1 mps 671 mmHg 35%
    17:00 +19°C° 0 mm 1 mps 670 mmHg 38%
    18:00 +16°C° 0 mm 1 mps 670 mmHg 42%
    19:00 +14°C° 0 mm 1 mps 670 mmHg 46%
    20:00 +13°C° 0 mm 1 mps 670 mmHg 46%
    21:00 +13°C° 0 mm 1 mps 670 mmHg 47%
    22:00 +12°C° 0 mm 1 mps 670 mmHg 47%
    23:00 +12°C° 0 mm 1 mps 669 mmHg 48%

    Day after tomorrow, 24 October, Thursday

    Time Temperature Precipitation Wind Pressure Humidity
    00:00 +12°C° 0 mm 1 mps 669 mmHg 49%
    01:00 +11°C° 0 mm 1 mps 669 mmHg 49%
    02:00 +11°C° 0 mm 1 mps 669 mmHg 50%
    03:00 +11°C° 0 mm 1 mps 668 mmHg 51%
    04:00 +10°C° 0 mm 1 mps 668 mmHg 51%
    05:00 +11°C° 0 mm 1 mps 668 mmHg 50%
    06:00 +11°C° 0 mm 1 mps 668 mmHg 48%
    07:00 +12°C° 0 mm 1 mps 669 mmHg 47%
    08:00 +15°C° 0 mm 1 mps 669 mmHg 39%
    09:00 +19°C° 0 mm 1 mps 670 mmHg 31%
    10:00 +22°C° 0 mm 1 mps 671 mmHg 23%
    11:00 +22°C° 0 mm 1 mps 671 mmHg 22%
    12:00 +23°C° 0 mm 1 mps 671 mmHg 20%
    13:00 +24°C° 0 mm 1 mps 671 mmHg 19%
    14:00 +23°C° 0 mm 1 mps 670 mmHg 24%
    15:00 +21°C° 0 mm 1 mps 669 mmHg 29%
    16:00 +20°C° 0 mm 1 mps 669 mmHg 34%
    17:00 +18°C° 0 mm 1 mps 668 mmHg 39%
    18:00 +15°C° 0 mm 1 mps 668 mmHg 44%
    19:00 +13°C° 0 mm 1 mps 668 mmHg 49%
    20:00 +13°C° 0 mm 1 mps 668 mmHg 48%
    21:00 +13°C° 0 mm 1 mps 668 mmHg 47%
    22:00 +12°C° 0 mm 1 mps 668 mmHg 47%
    23:00 +12°C° 0 mm 1 mps 668 mmHg 45%

    25 October, Friday

    Time Temperature Precipitation Wind Pressure Humidity
    00:00 +12°C° 0 mm 1 mps 667 mmHg 44%
    01:00 +11°C° 0 mm 1 mps 667 mmHg 43%
    02:00 +11°C° 0 mm 1 mps 667 mmHg 42%
    03:00 +11°C° 0 mm 1 mps 667 mmHg 42%
    04:00 +11°C° 0 mm 1 mps 667 mmHg 41%
    05:00 +11°C° 0 mm 1 mps 667 mmHg 41%
    06:00 +11°C° 0 mm 1 mps 667 mmHg 40%
    07:00 +12°C° 0 mm 1 mps 668 mmHg 40%
    08:00 +15°C° 0 mm 1 mps 669 mmHg 35%
    09:00 +19°C° 0 mm 1 mps 669 mmHg 30%
    10:00 +21°C° 0 mm 1 mps 670 mmHg 25%
    11:00 +22°C° 0 mm 1 mps 670 mmHg 23%
    12:00 +23°C° 0 mm 1 mps 670 mmHg 21%
    13:00 +24°C° 0 mm 1 mps 670 mmHg 20%
    14:00 +22°C° 0 mm 1 mps 670 mmHg 25%
    15:00 +21°C° 0 mm 1 mps 669 mmHg 30%
    16:00 +20°C° 0 mm 1 mps 669 mmHg 35%
    17:00 +18°C° 0 mm 1 mps 669 mmHg 38%
    18:00 +15°C° 0 mm 1 mps 669 mmHg 41%
    19:00 +13°C° 0 mm 1 mps 669 mmHg 44%
    20:00 +13°C° 0 mm 1 mps 669 mmHg 43%
    21:00 +12°C° 0 mm 1 mps 669 mmHg 42%
    22:00 +12°C° 0 mm 1 mps 669 mmHg 40%
    23:00 +12°C° 0 mm 1 mps 669 mmHg 40%

    26 October, Saturday

    Time Temperature Precipitation Wind Pressure Humidity
    00:00 +12°C° 0 mm 1 mps 669 mmHg 40%
    01:00 +11°C° 0 mm 1 mps 669 mmHg 40%
    02:00 +11°C° 0 mm 1 mps 669 mmHg 40%
    03:00 +11°C° 0 mm 1 mps 668 mmHg 40%
    04:00 +11°C° 0 mm 1 mps 668 mmHg 40%
    05:00 +11°C° 0 mm 1 mps 669 mmHg 40%
    06:00 +12°C° 0 mm 1 mps 669 mmHg 40%
    07:00 +12°C° 0 mm 1 mps 669 mmHg 40%
    08:00 +15°C° 0 mm 1 mps 670 mmHg 35%
    09:00 +19°C° 0 mm 1 mps 671 mmHg 29%
    10:00 +22°C° 0 mm 1 mps 672 mmHg 23%
    11:00 +22°C° 0 mm 1 mps 672 mmHg 22%
    12:00 +23°C° 0 mm 1 mps 672 mmHg 21%
    13:00 +24°C° 0 mm 1 mps 672 mmHg 19%
    14:00 +22°C° 0 mm 1 mps 671 mmHg 24%
    15:00 +21°C° 0 mm 1 mps 671 mmHg 28%
    16:00 +20°C° 0 mm 1 mps 670 mmHg 33%
    17:00 +18°C° 0 mm 1 mps 670 mmHg 37%
    18:00 +15°C° 0 mm 1 mps 670 mmHg 40%
    19:00 +13°C° 0 mm 1 mps 669 mmHg 43%
    20:00 +13°C° 0 mm 1 mps 669 mmHg 44%
    21:00 +11°C° 0 mm 0 mps 669 mmHg 44%
    22:00 +11°C° 0 mm 0 mps 669 mmHg 44%
    23:00 +11°C° 0 mm 0 mps 669 mmHg 44%

    27 October, Sunday

    Time Temperature Precipitation Wind Pressure Humidity
    00:00 +11°C° 0 mm 0 mps 669 mmHg 43%
    01:00 +11°C° 0 mm 1 mps 669 mmHg 43%
    02:00 +11°C° 0 mm 1 mps 669 mmHg 43%
    03:00 +11°C° 0 mm 1 mps 668 mmHg 43%
    04:00 +11°C° 0 mm 1 mps 668 mmHg 43%
    05:00 +11°C° 0 mm 1 mps 668 mmHg 42%
    06:00 +12°C° 0 mm 1 mps 669 mmHg 42%
    07:00 +12°C° 0 mm 1 mps 669 mmHg 42%
    08:00 +15°C° 0 mm 1 mps 670 mmHg 36%
    09:00 +19°C° 0 mm 1 mps 670 mmHg 30%
    10:00 +21°C° 0 mm 1 mps 671 mmHg 25%
    11:00 +21°C° 0 mm 2 mps 671 mmHg 23%
    12:00 +21°C° 0 mm 2 mps 671 mmHg 22%
    13:00 +23°C° 0 mm 2 mps 671 mmHg 21%
    14:00 +21°C° 0 mm 2 mps 670 mmHg 26%
    15:00 +19°C° 0 mm 2 mps 670 mmHg 31%
    16:00 +18°C° 0 mm 2 mps 669 mmHg 37%
    17:00 +16°C° 0 mm 2 mps 669 mmHg 41%
    18:00 +14°C° 0 mm 1 mps 668 mmHg 45%
    19:00 +12°C° 0 mm 1 mps 668 mmHg 50%
    20:00 +12°C° 0 mm 1 mps 668 mmHg 49%
    21:00 +12°C° 0 mm 1 mps 668 mmHg 48%
    22:00 +11°C° 0 mm 1 mps 668 mmHg 47%
    23:00 +11°C° 0 mm 1 mps 668 mmHg 45%

    28 October, Monday

    Time Temperature Precipitation Wind Pressure Humidity
    00:00 +11°C° 0 mm 1 mps 668 mmHg 44%
    01:00 +11°C° 0 mm 1 mps 668 mmHg 43%
    02:00 +11°C° 0 mm 1 mps 668 mmHg 43%
    03:00 +11°C° 0 mm 1 mps 667 mmHg 42%
    04:00 +10°C° 0 mm 1 mps 667 mmHg 42%
    05:00 +11°C° 0 mm 1 mps 667 mmHg 42%
    06:00 +11°C° 0 mm 1 mps 668 mmHg 41%
    07:00 +12°C° 0 mm 1 mps 668 mmHg 41%
    08:00 +15°C° 0 mm 1 mps 669 mmHg 35%
    09:00 +19°C° 0 mm 1 mps 670 mmHg 30%
    10:00 +21°C° 0 mm 1 mps 671 mmHg 24%
    11:00 +21°C° 0 mm 2 mps 671 mmHg 24%
    12:00 +23°C° 0 mm 2 mps 671 mmHg 24%
    13:00 +22°C° 0 mm 3 mps 671 mmHg 24%
    14:00 +21°C° 0 mm 2 mps 670 mmHg 30%
    15:00 +19°C° 0 mm 2 mps 669 mmHg 35%
    16:00 +18°C° 0 mm 2 mps 669 mmHg 41%
    17:00 +16°C° 0 mm 2 mps 668 mmHg 46%
    18:00 +14°C° 0 mm 1 mps 668 mmHg 51%
    19:00 +12°C° 0 mm 1 mps 668 mmHg 57%
    20:00 +12°C° 0 mm 1 mps 668 mmHg 58%
    21:00 +12°C° 0 mm 1 mps 668 mmHg 59%
    22:00 +11°C° 0 mm 1 mps 668 mmHg 60%
    23:00 +11°C° 0 mm 1 mps 668 mmHg 61%
    Show more